SB KEPS @ AMSAT $ORB07032.O Orbital Elements 07032.OSCAR
HR AMSAT ORBITAL ELEMENTS FOR OSCAR SATELLITES FROM WA5QGD FORT WORTH,TX February 1, 2007 Send SUBSCRIBE KEPS/UNSUBSCRIBE KEPS to [email protected] only BID: ORB07032.O TO ALL RADIO AMATEURS BT
Satellite: AO-07 Catalog number: 07530 Epoch time: 07031.59266877 Element set: 0795 Inclination: 101.5373 deg RA of node: 073.5228 deg Eccentricity: 0.0012083 Arg of perigee: 161.7372 deg Mean anomaly: 198.4137 deg Mean motion: 12.53572426 rev/day Decay rate: -2.8e-07 rev/day^2 Epoch rev: 47400 Checksum: 299
Satellite: AO-10 Catalog number: 14129 Epoch time: 07029.62966902 Element set: 0354 Inclination: 026.9722 deg RA of node: 294.1091 deg Eccentricity: 0.6051069 Arg of perigee: 353.7872 deg Mean anomaly: 001.2816 deg Mean motion: 02.05868358 rev/day Decay rate: 6.0e-08 rev/day^2 Epoch rev: 17771 Checksum: 308
Satellite: UO-11 Catalog number: 14781 Epoch time: 07032.59353408 Element set: 290 Inclination: 098.1998 deg RA of node: 052.6046 deg Eccentricity: 0.0008135 Arg of perigee: 247.3915 deg Mean anomaly: 112.6411 deg Mean motion: 14.79516465 rev/day Decay rate: -9.8e-07 rev/day^2 Epoch rev: 22968 Checksum: 318
Satellite: RS-10/11 Catalog number: 18129 Epoch time: 07031.90079437 Element set: 0221 Inclination: 082.9270 deg RA of node: 158.9892 deg Eccentricity: 0.0011535 Arg of perigee: 170.6018 deg Mean anomaly: 189.5354 deg Mean motion: 13.72783992 rev/day Decay rate: 5.1e-07 rev/day^2 Epoch rev: 98253 Checksum: 317
Satellite: RS-15 Catalog number: 23439 Epoch time: 07031.92951533 Element set: 0011 Inclination: 064.8136 deg RA of node: 227.2769 deg Eccentricity: 0.0162954 Arg of perigee: 214.6839 deg Mean anomaly: 144.3372 deg Mean motion: 11.27551724 rev/day Decay rate: -3.9e-07 rev/day^2 Epoch rev: 49833 Checksum: 310
Satellite: FO-29 Catalog number: 24278 Epoch time: 07032.87046029 Element set: 424 Inclination: 098.5312 deg RA of node: 010.8054 deg Eccentricity: 0.0351436 Arg of perigee: 074.0466 deg Mean anomaly: 289.9087 deg Mean motion: 13.52927955 rev/day Decay rate: 3.0e-07 rev/day^2 Epoch rev: 51660 Checksum: 310
Satellite: SO-33 Catalog number: 25509 Epoch time: 07031.88665791 Element set: 853 Inclination: 031.4339 deg RA of node: 276.3642 deg Eccentricity: 0.0355673 Arg of perigee: 315.7236 deg Mean anomaly: 041.5444 deg Mean motion: 14.28145688 rev/day Decay rate: 2.45e-06 rev/day^2 Epoch rev: 43175 Checksum: 323
Satellite: AO-40 Catalog number: 26609 Epoch time: 07032.19384119 Element set: 834 Inclination: 004.8407 deg RA of node: 179.1316 deg Eccentricity: 0.7998999 Arg of perigee: 267.0800 deg Mean anomaly: 009.9290 deg Mean motion: 01.25586120 rev/day Decay rate: -4.7e-07 rev/day^2 Epoch rev: 2873 Checksum: 326
Satellite: VO-52 Catalog number: 28650 Epoch time: 07032.60409166 Element set: 544 Inclination: 097.8474 deg RA of node: 106.2726 deg Eccentricity: 0.0027066 Arg of perigee: 337.6433 deg Mean anomaly: 022.3574 deg Mean motion: 14.81258253 rev/day Decay rate: 4.7e-07 rev/day^2 Epoch rev: 9434 Checksum: 302
/EX SB KEPS @ AMSAT $ORB07032.D Orbital Elements 07032.MICROS
HR AMSAT ORBITAL ELEMENTS FOR THE MICROSATS FROM WA5QGD FORT WORTH,TX February 1, 2007 Send SUBSCRIBE KEPS/UNSUBSCRIBE KEPS to [email protected] only BID: ORB07032.D TO ALL RADIO AMATEURS BT
Satellite: AO-16 Catalog number: 20439 Epoch time: 07031.53586290 Element set: 0956 Inclination: 098.1906 deg RA of node: 033.6599 deg Eccentricity: 0.0010016 Arg of perigee: 233.2748 deg Mean anomaly: 126.7524 deg Mean motion: 14.31748892 rev/day Decay rate: 2.2e-07 rev/day^2 Epoch rev: 88899 Checksum: 330
Satellite: LO-19 Catalog number: 20442 Epoch time: 07031.52739484 Element set: 0885 Inclination: 098.1822 deg RA of node: 043.1426 deg Eccentricity: 0.0011070 Arg of perigee: 231.8269 deg Mean anomaly: 128.1921 deg Mean motion: 14.31990166 rev/day Decay rate: 1.3e-07 rev/day^2 Epoch rev: 88913 Checksum: 294
Satellite: AO-27 Catalog number: 22825 Epoch time: 07031.47006499 Element set: 0607 Inclination: 098.3118 deg RA of node: 007.4379 deg Eccentricity: 0.0007750 Arg of perigee: 311.1164 deg Mean anomaly: 048.9357 deg Mean motion: 14.29197793 rev/day Decay rate: -7.5e-07 rev/day^2 Epoch rev: 69596 Checksum: 334
Satellite: IO-26 Catalog number: 22826 Epoch time: 07031.89085780 Element set: 0302 Inclination: 098.3056 deg RA of node: 008.9666 deg Eccentricity: 0.0008410 Arg of perigee: 307.9074 deg Mean anomaly: 052.1351 deg Mean motion: 14.29443660 rev/day Decay rate: 2.1e-07 rev/day^2 Epoch rev: 69610 Checksum: 290
Satellite: PO-28 Catalog number: 22829 Epoch time: 07031.49363791 Element set: 581 Inclination: 098.2951 deg RA of node: 009.7723 deg Eccentricity: 0.0008859 Arg of perigee: 279.0420 deg Mean anomaly: 080.9763 deg Mean motion: 14.30141525 rev/day Decay rate: -1.1e-07 rev/day^2 Epoch rev: 69627 Checksum: 319
Satellite: GO-32 Catalog number: 25397 Epoch time: 07031.55160879 Element set: 0220 Inclination: 098.4363 deg RA of node: 084.6114 deg Eccentricity: 0.0000489 Arg of perigee: 305.5963 deg Mean anomaly: 054.5174 deg Mean motion: 14.23118670 rev/day Decay rate: -1.25e-06 rev/day^2 Epoch rev: 44472 Checksum: 295
Satellite: MO-46 Catalog number: 26548 Epoch time: 07032.65177335 Element set: 712 Inclination: 064.5548 deg RA of node: 241.9526 deg Eccentricity: 0.0030768 Arg of perigee: 215.2392 deg Mean anomaly: 144.6697 deg Mean motion: 14.83093121 rev/day Decay rate: 1.28e-06 rev/day^2 Epoch rev: 34343 Checksum: 310
Satellite: NO-44 Catalog number: 26931 Epoch time: 07031.79382524 Element set: 0512 Inclination: 067.0524 deg RA of node: 138.8288 deg Eccentricity: 0.0005539 Arg of perigee: 278.9038 deg Mean anomaly: 081.1439 deg Mean motion: 14.29472218 rev/day Decay rate: 2.01e-06 rev/day^2 Epoch rev: 27860 Checksum: 311
Satellite: SO-50 Catalog number: 27607 Epoch time: 07031.36119912 Element set: 0232 Inclination: 064.5571 deg RA of node: 140.4373 deg Eccentricity: 0.0039022 Arg of perigee: 046.3938 deg Mean anomaly: 314.0415 deg Mean motion: 14.71223577 rev/day Decay rate: -4.0e-08 rev/day^2 Epoch rev: 22099 Checksum: 272
Satellite: CO-55 Catalog number: 27844 Epoch time: 07031.94907818 Element set: 0952 Inclination: 098.7200 deg RA of node: 042.1023 deg Eccentricity: 0.0010534 Arg of perigee: 121.3358 deg Mean anomaly: 238.8918 deg Mean motion: 14.20489336 rev/day Decay rate: 2.43e-06 rev/day^2 Epoch rev: 18613 Checksum: 299
Satellite: CO-57 Catalog number: 27848 Epoch time: 07030.54347867 Element set: 913 Inclination: 098.7178 deg RA of node: 039.9640 deg Eccentricity: 0.0010250 Arg of perigee: 127.8600 deg Mean anomaly: 232.3504 deg Mean motion: 14.20311111 rev/day Decay rate: -4.3e-07 rev/day^2 Epoch rev: 18591 Checksum: 288
Satellite: AO-51 Catalog number: 28375 Epoch time: 07032.63892264 Element set: 737 Inclination: 098.1333 deg RA of node: 078.8136 deg Eccentricity: 0.0083086 Arg of perigee: 233.3147 deg Mean anomaly: 126.0390 deg Mean motion: 14.40553633 rev/day Decay rate: 1.4e-07 rev/day^2 Epoch rev: 13619 Checksum: 299
Satellite: CO-56 Catalog number: 28941 Epoch time: 07032.59119245 Element set: 338 Inclination: 098.1503 deg RA of node: 079.0485 deg Eccentricity: 0.0247104 Arg of perigee: 031.4464 deg Mean anomaly: 330.1159 deg Mean motion: 15.34122201 rev/day Decay rate: 2.7592e-04 rev/day^2 Epoch rev: 5260 Checksum: 285
Satellite: HO-59 Catalog number: 29484 Epoch time: 07031.59805921 Element set: 177 Inclination: 098.3087 deg RA of node: 061.6367 deg Eccentricity: 0.0247683 Arg of perigee: 032.3200 deg Mean anomaly: 329.3942 deg Mean motion: 15.40488960 rev/day Decay rate: 5.1851e-04 rev/day^2 Epoch rev: 1997 Checksum: 341
Satellite: NO-60 Catalog number: 29661 Epoch time: 07032.53304702 Element set: 54 Inclination: 051.6422 deg RA of node: 082.5555 deg Eccentricity: 0.0011470 Arg of perigee: 169.3858 deg Mean anomaly: 190.7379 deg Mean motion: 15.86634443 rev/day Decay rate: 6.7427e-04 rev/day^2 Epoch rev: 674 Checksum: 309
Satellite: NO-61 Catalog number: 29667 Epoch time: 07032.51882337 Element set: 41 Inclination: 051.6335 deg RA of node: 083.1916 deg Eccentricity: 0.0016226 Arg of perigee: 172.0078 deg Mean anomaly: 188.1719 deg Mean motion: 15.83336117 rev/day Decay rate: 1.9004e-04 rev/day^2 Epoch rev: 647 Checksum: 296
/EX SB KEPS @ AMSAT $ORB07032.W Orbital Elements 07032.WEATHER
HR AMSAT ORBITAL ELEMENTS FOR WEATHER SATELLITES FROM WA5QGD FORT WORTH,TX February 1, 2007 Send SUBSCRIBE KEPS/UNSUBSCRIBE KEPS to [email protected] only BID: ORB07032.W TO ALL RADIO AMATEURS BT
Satellite: NOAA-10 Catalog number: 16969 Epoch time: 07032.44733456 Element set: 527 Inclination: 098.7539 deg RA of node: 049.4932 deg Eccentricity: 0.0012068 Arg of perigee: 200.0025 deg Mean anomaly: 160.0696 deg Mean motion: 14.27316131 rev/day Decay rate: -4.7e-07 rev/day^2 Epoch rev: 5986 Checksum: 300
Satellite: NOAA-11 Catalog number: 19531 Epoch time: 07032.13918625 Element set: 510 Inclination: 098.8166 deg RA of node: 122.9919 deg Eccentricity: 0.0012423 Arg of perigee: 059.4007 deg Mean anomaly: 300.8360 deg Mean motion: 14.14834389 rev/day Decay rate: 1.47e-06 rev/day^2 Epoch rev: 94691 Checksum: 298
Satellite: NOAA-12 Catalog number: 21263 Epoch time: 07032.06580876 Element set: 3 Inclination: 098.7470 deg RA of node: 029.5709 deg Eccentricity: 0.0013425 Arg of perigee: 140.5654 deg Mean anomaly: 219.6488 deg Mean motion: 14.25521224 rev/day Decay rate: -2.0e-08 rev/day^2 Epoch rev: 81685 Checksum: 288
Satellite: MET-3/5 Catalog number: 21655 Epoch time: 07031.95889449 Element set: 0259 Inclination: 082.5560 deg RA of node: 099.2018 deg Eccentricity: 0.0012949 Arg of perigee: 184.5839 deg Mean anomaly: 175.5166 deg Mean motion: 13.17010012 rev/day Decay rate: 5.1e-07 rev/day^2 Epoch rev: 74347 Checksum: 317
